This is the latest recevied weather packets stored in our database for station/object KI2K. If no packets are shown the sender has not sent any weather packets the latest 10 day(s).
| Time | Temp. | Humidity | Pressure | Rain* | Wind** | Luminosity | Snow |
|---|---|---|---|---|---|---|---|
| 1777753243 | 12.22° C | 43% | 1017.1 hPa | 0 mm | - | 652 W/m² | - |
| 1777752938 | 12.22° C | 46% | 1017.4 hPa | 0 mm | - | 227 W/m² | - |
| 1777752635 | 12.78° C | 42% | 1017.3 hPa | 0 mm | - | 742 W/m² | - |
| 1777752331 | 12.78° C | 42% | 1017.4 hPa | 0 mm | - | 416 W/m² | - |
| 1777752029 | 12.78° C | 44% | 1017.4 hPa | 0 mm | - | 687 W/m² | - |
| 1777751726 | 12.22° C | 46% | 1017.3 hPa | 0 mm | - | 728 W/m² | - |
| 1777751422 | 11.67° C | 48% | 1017.5 hPa | 0 mm | - | 528 W/m² | - |
| 1777751119 | 12.78° C | 44% | 1017.5 hPa | 0 mm | - | 163 W/m² | - |
| 1777750815 | 13.33° C | 48% | 1017.6 hPa | 0 mm | - | 746 W/m² | - |
| 1777750513 | 12.22° C | 46% | 1017.4 hPa | 0 mm | - | 684 W/m² | - |
| 1777750209 | 11.11° C | 49% | 1017.6 hPa | 0 mm | - | 699 W/m² | - |
| 1777749905 | 12.22° C | 48% | 1017.5 hPa | 0 mm | - | 161 W/m² | - |
| 1777749603 | 12.78° C | 44% | 1017.5 hPa | 0 mm | - | 271 W/m² | - |
| 1777749299 | 12.78° C | 46% | 1017.7 hPa | 0 mm | - | 687 W/m² | - |
| 1777748997 | 12.22° C | 49% | 1017.6 hPa | 0 mm | - | 712 W/m² | - |
| 1777748694 | 12.22° C | 48% | 1017.7 hPa | 0 mm | - | 678 W/m² | - |
| 1777748390 | 11.67° C | 47% | 1017.8 hPa | 0 mm | - | 702 W/m² | - |
| 1777748086 | 12.22° C | 49% | 1017.8 hPa | 0 mm | - | 176 W/m² | - |
| 1777747783 | 12.22° C | 51% | 1017.9 hPa | 0 mm | - | 728 W/m² | - |
| 1777747478 | 11.11° C | 49% | 1017.9 hPa | 0 mm | - | 762 W/m² | - |
| 1777747175 | 11.11° C | 52% | 1017.9 hPa | 0 mm | - | 179 W/m² | - |
| 1777746871 | 11.67° C | 47% | 1017.8 hPa | 0 mm | - | 547 W/m² | - |
| 1777746566 | 11.11° C | 50% | 1018.1 hPa | 0 mm | - | 742 W/m² | - |
| 1777746262 | 12.22° C | 50% | 1017.9 hPa | 0 mm | - | 827 W/m² | - |
| 1777745959 | 12.22° C | 48% | 1018 hPa | 0 mm | - | 751 W/m² | - |
* Rain latest hour (hover to see other rain measurements)
** Current wind speed in m/s (hover to see current wind gust speed)